Time,TemperatureF,DewpointF,PressureIn,WindDirection,WindDirectionDegrees,WindSpeedMPH,WindSpeedGustMPH,Humidity,HourlyPrecipIn,Conditions,Clouds,dailyrainin,SoftwareType,DateUTC
2013-04-15 00:00:00,55.6,48.1,29.26,East,90,2.0,6.0,76,0.00,,,0.00,WeatherCatV1.02B3,2013-04-15 04:00:00,
2013-04-15 00:05:00,55.2,48.1,29.25,ESE,112,1.0,4.0,77,0.00,,,0.00,WeatherCatV1.02B3,2013-04-15 04:05:00,
2013-04-15 00:10:00,55.2,48.1,29.25,ESE,112,1.0,4.0,77,0.00,,,0.00,WeatherCatV1.02B3,2013-04-15 04:10:00,
2013-04-15 00:15:00,55.2,48.1,29.25,ESE,112,1.0,4.0,77,0.00,,,0.00,WeatherCatV1.02B3,2013-04-15 04:15:00,
2013-04-15 00:20:00,55.2,48.1,29.25,ESE,112,1.0,4.0,77,0.00,,,0.00,WeatherCatV1.02B3,2013-04-15 04:20:00,
2013-04-15 00:25:00,55.2,48.1,29.25,ESE,112,1.0,4.0,77,0.00,,,0.00,WeatherCatV1.02B3,2013-04-15 04:25:00,
2013-04-15 00:30:00,55.2,48.1,29.25,ESE,112,1.0,5.0,77,0.00,,,0.00,WeatherCatV1.02B3,2013-04-15 04:30:00,
2013-04-15 00:35:00,55.2,48.1,29.25,ESE,112,1.0,5.0,77,0.00,,,0.00,WeatherCatV1.02B3,2013-04-15 04:35:00,
2013-04-15 00:40:00,55.2,48.1,29.25,ESE,112,1.0,5.0,77,0.00,,,0.00,WeatherCatV1.02B3,2013-04-15 04:40:00,
2013-04-15 00:45:00,55.2,48.1,29.25,ESE,112,1.0,5.0,77,0.00,,,0.00,WeatherCatV1.02B3,2013-04-15 04:45:00,
2013-04-15 00:50:00,55.2,48.1,29.25,ESE,112,1.0,5.0,77,0.00,,,0.00,WeatherCatV1.02B3,2013-04-15 04:50:00,
2013-04-15 00:55:00,55.2,48.1,29.25,ESE,112,1.0,5.0,77,0.00,,,0.00,WeatherCatV1.02B3,2013-04-15 04:55:00,
2013-04-15 01:00:00,56.3,48.1,29.26,ESE,112,1.0,9.0,74,0.00,,,0.00,WeatherCatV1.02B3,2013-04-15 05:00:00,
2013-04-15 01:05:00,56.3,48.1,29.26,ESE,112,1.0,9.0,74,0.00,,,0.00,WeatherCatV1.02B3,2013-04-15 05:05:00,
2013-04-15 01:10:00,56.3,48.1,29.26,ESE,112,1.0,9.0,74,0.00,,,0.00,WeatherCatV1.02B3,2013-04-15 05:10:00,
2013-04-15 01:15:00,56.3,48.1,29.26,ESE,112,1.0,9.0,74,0.00,,,0.00,WeatherCatV1.02B3,2013-04-15 05:15:00,
2013-04-15 01:20:00,56.3,48.1,29.26,ESE,112,1.0,9.0,74,0.00,,,0.00,WeatherCatV1.02B3,2013-04-15 05:20:00,
2013-04-15 01:25:00,56.3,48.1,29.26,ESE,112,1.0,9.0,74,0.00,,,0.00,WeatherCatV1.02B3,2013-04-15 05:25:00,
2013-04-15 01:30:00,56.4,47.9,29.26,ENE,68,1.0,4.0,73,0.00,,,0.00,WeatherCatV1.02B3,2013-04-15 05:30:00,
2013-04-15 01:35:00,56.4,47.9,29.26,ENE,68,1.0,4.0,73,0.00,,,0.00,WeatherCatV1.02B3,2013-04-15 05:35:00,
2013-04-15 01:40:00,56.4,47.9,29.26,ENE,68,1.0,4.0,73,0.00,,,0.00,WeatherCatV1.02B3,2013-04-15 05:40:00,
2013-04-15 01:45:00,56.4,47.9,29.26,ENE,68,1.0,4.0,73,0.00,,,0.00,WeatherCatV1.02B3,2013-04-15 05:45:00,
2013-04-15 01:50:00,56.4,47.9,29.26,ENE,68,1.0,4.0,73,0.00,,,0.00,WeatherCatV1.02B3,2013-04-15 05:50:00,
2013-04-15 01:55:00,56.4,47.9,29.26,ENE,68,1.0,4.0,73,0.00,,,0.00,WeatherCatV1.02B3,2013-04-15 05:55:00,
2013-04-15 02:00:00,56.4,47.9,29.26,ENE,68,1.0,4.0,73,0.00,,,0.00,WeatherCatV1.02B3,2013-04-15 06:00:00,
2013-04-15 02:05:00,56.0,47.8,29.25,ESE,112,0.0,3.0,74,0.00,,,0.00,WeatherCatV1.02B3,2013-04-15 06:05:00,
2013-04-15 02:10:00,56.0,47.8,29.25,ESE,112,0.0,3.0,74,0.00,,,0.00,WeatherCatV1.02B3,2013-04-15 06:10:00,
2013-04-15 02:15:00,56.0,47.8,29.25,ESE,112,0.0,3.0,74,0.00,,,0.00,WeatherCatV1.02B3,2013-04-15 06:15:00,
2013-04-15 02:20:00,56.0,47.8,29.25,ESE,112,0.0,3.0,74,0.00,,,0.00,WeatherCatV1.02B3,2013-04-15 06:20:00,
2013-04-15 02:25:00,56.0,47.8,29.25,ESE,112,0.0,3.0,74,0.00,,,0.00,WeatherCatV1.02B3,2013-04-15 06:25:00,
2013-04-15 02:30:00,56.0,47.8,29.25,ESE,112,0.0,3.0,74,0.00,,,0.00,WeatherCatV1.02B3,2013-04-15 06:30:00,
2013-04-15 02:35:00,57.6,47.5,29.27,ESE,112,1.0,13.0,69,0.00,,,0.00,WeatherCatV1.02B3,2013-04-15 06:35:00,
2013-04-15 02:40:00,57.6,47.5,29.27,ESE,112,1.0,13.0,69,0.00,,,0.00,WeatherCatV1.02B3,2013-04-15 06:40:00,
2013-04-15 02:45:00,57.6,47.5,29.27,ESE,112,1.0,13.0,69,0.00,,,0.00,WeatherCatV1.02B3,2013-04-15 06:45:00,
2013-04-15 02:50:00,57.6,47.5,29.27,ESE,112,1.0,13.0,69,0.00,,,0.00,WeatherCatV1.02B3,2013-04-15 06:50:00,
2013-04-15 02:55:00,57.6,47.5,29.27,ESE,112,1.0,13.0,69,0.00,,,0.00,WeatherCatV1.02B3,2013-04-15 06:55:00,
2013-04-15 03:00:00,57.6,47.5,29.27,ESE,112,1.0,13.0,69,0.00,,,0.00,WeatherCatV1.02B3,2013-04-15 07:00:00,
2013-04-15 03:05:00,58.4,47.9,29.29,SW,225,2.0,12.0,68,0.00,,,0.00,WeatherCatV1.02B3,2013-04-15 07:05:00,
2013-04-15 03:10:00,58.4,47.9,29.29,SW,225,2.0,12.0,68,0.00,,,0.00,WeatherCatV1.02B3,2013-04-15 07:10:00,
2013-04-15 03:15:00,58.4,47.9,29.29,SW,225,2.0,12.0,68,0.00,,,0.00,WeatherCatV1.02B3,2013-04-15 07:15:00,
2013-04-15 03:20:00,58.4,47.9,29.29,SW,225,2.0,12.0,68,0.00,,,0.00,WeatherCatV1.02B3,2013-04-15 07:20:00,
2013-04-15 03:25:00,58.4,47.9,29.29,SW,225,2.0,12.0,68,0.00,,,0.00,WeatherCatV1.02B3,2013-04-15 07:25:00,
2013-04-15 03:30:00,58.4,47.9,29.29,SW,225,2.0,12.0,68,0.00,,,0.00,WeatherCatV1.02B3,2013-04-15 07:30:00,
2013-04-15 03:35:00,59.4,48.0,29.31,SW,225,3.0,21.0,66,0.00,,,0.00,WeatherCatV1.02B3,2013-04-15 07:35:00,
2013-04-15 03:40:00,59.4,48.0,29.31,SW,225,3.0,21.0,66,0.00,,,0.00,WeatherCatV1.02B3,2013-04-15 07:40:00,
2013-04-15 03:45:00,59.4,48.0,29.31,SW,225,3.0,21.0,66,0.00,,,0.00,WeatherCatV1.02B3,2013-04-15 07:45:00,
2013-04-15 03:50:00,59.4,48.0,29.31,SW,225,3.0,21.0,66,0.00,,,0.00,WeatherCatV1.02B3,2013-04-15 07:50:00,
2013-04-15 03:55:00,59.4,48.0,29.31,SW,225,3.0,21.0,66,0.00,,,0.00,WeatherCatV1.02B3,2013-04-15 07:55:00,
2013-04-15 04:00:00,59.7,48.3,29.30,SW,225,4.0,17.0,66,0.00,,,0.00,WeatherCatV1.02B3,2013-04-15 08:00:00,
2013-04-15 04:05:00,59.7,48.3,29.30,SW,225,4.0,17.0,66,0.00,,,0.00,WeatherCatV1.02B3,2013-04-15 08:05:00,
2013-04-15 04:10:00,59.7,48.3,29.30,SW,225,4.0,17.0,66,0.00,,,0.00,WeatherCatV1.02B3,2013-04-15 08:10:00,
2013-04-15 04:15:00,59.7,48.3,29.30,SW,225,4.0,17.0,66,0.00,,,0.00,WeatherCatV1.02B3,2013-04-15 08:15:00,
2013-04-15 04:20:00,59.7,48.3,29.30,SW,225,4.0,17.0,66,0.00,,,0.00,WeatherCatV1.02B3,2013-04-15 08:20:00,
2013-04-15 04:25:00,59.7,48.3,29.30,SW,225,4.0,17.0,66,0.00,,,0.00,WeatherCatV1.02B3,2013-04-15 08:25:00,
2013-04-15 04:30:00,60.0,48.6,29.30,SW,225,5.0,15.0,66,0.00,,,0.00,WeatherCatV1.02B3,2013-04-15 08:30:00,
2013-04-15 04:35:00,60.0,48.6,29.30,SW,225,5.0,15.0,66,0.00,,,0.00,WeatherCatV1.02B3,2013-04-15 08:35:00,
2013-04-15 04:40:00,60.0,48.6,29.30,SW,225,5.0,15.0,66,0.00,,,0.00,WeatherCatV1.02B3,2013-04-15 08:40:00,
2013-04-15 04:45:00,60.0,48.6,29.30,SW,225,5.0,15.0,66,0.00,,,0.00,WeatherCatV1.02B3,2013-04-15 08:45:00,
2013-04-15 04:50:00,60.0,48.6,29.30,SW,225,5.0,15.0,66,0.00,,,0.00,WeatherCatV1.02B3,2013-04-15 08:50:00,
2013-04-15 04:55:00,60.0,48.6,29.30,SW,225,5.0,15.0,66,0.00,,,0.00,WeatherCatV1.02B3,2013-04-15 08:55:00,
2013-04-15 05:00:00,58.6,48.8,29.31,SW,225,5.0,18.0,70,0.00,,,0.00,WeatherCatV1.02B3,2013-04-15 09:00:00,
2013-04-15 05:05:00,58.6,48.8,29.31,SW,225,5.0,18.0,70,0.00,,,0.00,WeatherCatV1.02B3,2013-04-15 09:05:00,
2013-04-15 05:10:00,58.6,48.8,29.31,SW,225,5.0,18.0,70,0.00,,,0.00,WeatherCatV1.02B3,2013-04-15 09:10:00,
2013-04-15 05:15:00,58.6,48.8,29.31,SW,225,5.0,18.0,70,0.00,,,0.00,WeatherCatV1.02B3,2013-04-15 09:15:00,
2013-04-15 05:20:00,58.6,48.8,29.31,SW,225,5.0,18.0,70,0.00,,,0.00,WeatherCatV1.02B3,2013-04-15 09:20:00,
2013-04-15 05:25:00,58.6,48.8,29.31,SW,225,5.0,18.0,70,0.00,,,0.00,WeatherCatV1.02B3,2013-04-15 09:25:00,
2013-04-15 05:30:00,58.6,48.8,29.31,SW,225,5.0,18.0,70,0.00,,,0.00,WeatherCatV1.02B3,2013-04-15 09:30:00,
2013-04-15 05:35:00,58.4,48.7,29.30,SW,225,3.0,15.0,70,0.00,,,0.00,WeatherCatV1.02B3,2013-04-15 09:35:00,
2013-04-15 05:40:00,58.4,48.7,29.30,SW,225,3.0,15.0,70,0.00,,,0.00,WeatherCatV1.02B3,2013-04-15 09:40:00,
2013-04-15 05:45:00,58.4,48.7,29.30,SW,225,3.0,15.0,70,0.00,,,0.00,WeatherCatV1.02B3,2013-04-15 09:45:00,
2013-04-15 05:50:00,58.4,48.7,29.30,SW,225,3.0,15.0,70,0.00,,,0.00,WeatherCatV1.02B3,2013-04-15 09:50:00,
2013-04-15 05:55:00,58.4,48.7,29.30,SW,225,3.0,15.0,70,0.00,,,0.00,WeatherCatV1.02B3,2013-04-15 09:55:00,
2013-04-15 06:00:00,58.4,48.7,29.30,SW,225,3.0,15.0,70,0.00,,,0.00,WeatherCatV1.02B3,2013-04-15 10:00:00,
2013-04-15 06:05:00,57.9,49.3,29.26,SE,135,3.0,14.0,73,0.00,,,0.00,WeatherCatV1.02B3,2013-04-15 10:05:00,
2013-04-15 06:10:00,57.9,49.3,29.26,SE,135,3.0,14.0,73,0.00,,,0.00,WeatherCatV1.02B3,2013-04-15 10:10:00,
2013-04-15 06:15:00,57.9,49.3,29.26,SE,135,3.0,14.0,73,0.00,,,0.00,WeatherCatV1.02B3,2013-04-15 10:15:00,
2013-04-15 06:20:00,57.9,49.3,29.26,SE,135,3.0,14.0,73,0.00,,,0.00,WeatherCatV1.02B3,2013-04-15 10:20:00,
2013-04-15 06:25:00,57.9,49.3,29.26,SE,135,3.0,14.0,73,0.00,,,0.00,WeatherCatV1.02B3,2013-04-15 10:25:00,
2013-04-15 06:30:00,57.9,49.3,29.26,SE,135,3.0,14.0,73,0.00,,,0.00,WeatherCatV1.02B3,2013-04-15 10:30:00,
2013-04-15 06:35:00,57.5,49.3,29.29,SW,225,3.0,15.0,74,0.00,,,0.00,WeatherCatV1.02B3,2013-04-15 10:35:00,
2013-04-15 06:40:00,57.5,49.3,29.29,SW,225,3.0,15.0,74,0.00,,,0.00,WeatherCatV1.02B3,2013-04-15 10:40:00,
2013-04-15 06:45:00,57.5,49.3,29.29,SW,225,3.0,15.0,74,0.00,,,0.00,WeatherCatV1.02B3,2013-04-15 10:45:00,
2013-04-15 06:50:00,57.5,49.3,29.29,SW,225,3.0,15.0,74,0.00,,,0.00,WeatherCatV1.02B3,2013-04-15 10:50:00,
2013-04-15 06:55:00,57.5,49.3,29.29,SW,225,3.0,15.0,74,0.00,,,0.00,WeatherCatV1.02B3,2013-04-15 10:55:00,
2013-04-15 07:00:00,57.5,49.3,29.29,SW,225,3.0,15.0,74,0.00,,,0.00,WeatherCatV1.02B3,2013-04-15 11:00:00,
2013-04-15 07:05:00,56.7,49.2,29.30,SW,225,2.0,15.0,76,0.00,,,0.00,WeatherCatV1.02B3,2013-04-15 11:05:00,
2013-04-15 07:10:00,56.7,49.2,29.30,SW,225,2.0,15.0,76,0.00,,,0.00,WeatherCatV1.02B3,2013-04-15 11:10:00,
2013-04-15 07:15:00,56.7,49.2,29.30,SW,225,2.0,15.0,76,0.00,,,0.00,WeatherCatV1.02B3,2013-04-15 11:15:00,
2013-04-15 07:20:00,56.7,49.2,29.30,SW,225,2.0,15.0,76,0.00,,,0.00,WeatherCatV1.02B3,2013-04-15 11:20:00,
2013-04-15 07:25:00,56.7,49.2,29.30,SW,225,2.0,15.0,76,0.00,,,0.00,WeatherCatV1.02B3,2013-04-15 11:25:00,
2013-04-15 07:30:00,56.7,49.2,29.30,SW,225,2.0,15.0,76,0.00,,,0.00,WeatherCatV1.02B3,2013-04-15 11:30:00,
2013-04-15 07:35:00,57.3,49.8,29.31,SW,225,2.0,12.0,76,0.00,,,0.00,WeatherCatV1.02B3,2013-04-15 11:35:00,
2013-04-15 07:40:00,57.3,49.8,29.31,SW,225,2.0,12.0,76,0.00,,,0.00,WeatherCatV1.02B3,2013-04-15 11:40:00,
2013-04-15 07:45:00,57.3,49.8,29.31,SW,225,2.0,12.0,76,0.00,,,0.00,WeatherCatV1.02B3,2013-04-15 11:45:00,
2013-04-15 07:50:00,57.3,49.8,29.31,SW,225,2.0,12.0,76,0.00,,,0.00,WeatherCatV1.02B3,2013-04-15 11:50:00,
2013-04-15 07:55:00,57.3,49.8,29.31,SW,225,2.0,12.0,76,0.00,,,0.00,WeatherCatV1.02B3,2013-04-15 11:55:00,
2013-04-15 08:00:00,57.3,49.8,29.31,SW,225,2.0,12.0,76,0.00,,,0.00,WeatherCatV1.02B3,2013-04-15 12:00:00,
2013-04-15 08:05:00,57.5,50.0,29.33,SW,225,2.0,11.0,76,0.00,,,0.00,WeatherCatV1.02B3,2013-04-15 12:05:00,
2013-04-15 08:10:00,57.5,50.0,29.33,SW,225,2.0,11.0,76,0.00,,,0.00,WeatherCatV1.02B3,2013-04-15 12:10:00,
2013-04-15 08:15:00,57.5,50.0,29.33,SW,225,2.0,11.0,76,0.00,,,0.00,WeatherCatV1.02B3,2013-04-15 12:15:00,
2013-04-15 08:20:00,57.5,50.0,29.33,SW,225,2.0,11.0,76,0.00,,,0.00,WeatherCatV1.02B3,2013-04-15 12:20:00,
2013-04-15 08:25:00,57.5,50.0,29.33,SW,225,2.0,11.0,76,0.00,,,0.00,WeatherCatV1.02B3,2013-04-15 12:25:00,
2013-04-15 08:30:00,57.5,50.0,29.33,SW,225,2.0,11.0,76,0.00,,,0.00,WeatherCatV1.02B3,2013-04-15 12:30:00,
2013-04-15 08:35:00,58.3,50.8,29.34,SW,225,2.0,11.0,76,0.00,,,0.00,WeatherCatV1.02B3,2013-04-15 12:35:00,
2013-04-15 08:40:00,58.3,50.8,29.34,SW,225,2.0,11.0,76,0.00,,,0.00,WeatherCatV1.02B3,2013-04-15 12:40:00,
2013-04-15 08:45:00,58.3,50.8,29.34,SW,225,2.0,11.0,76,0.00,,,0.00,WeatherCatV1.02B3,2013-04-15 12:45:00,
2013-04-15 08:50:00,58.3,50.8,29.34,SW,225,2.0,11.0,76,0.00,,,0.00,WeatherCatV1.02B3,2013-04-15 12:50:00,
2013-04-15 08:55:00,58.3,50.8,29.34,SW,225,2.0,11.0,76,0.00,,,0.00,WeatherCatV1.02B3,2013-04-15 12:55:00,
2013-04-15 09:00:00,58.3,50.8,29.34,SW,225,2.0,11.0,76,0.00,,,0.00,WeatherCatV1.02B3,2013-04-15 13:00:00,
2013-04-15 09:05:00,58.8,50.9,29.34,SW,225,3.0,15.0,75,0.00,,,0.00,WeatherCatV1.02B3,2013-04-15 13:05:00,
2013-04-15 09:10:00,58.8,50.9,29.34,SW,225,3.0,15.0,75,0.00,,,0.00,WeatherCatV1.02B3,2013-04-15 13:10:00,
2013-04-15 09:15:00,58.8,50.9,29.34,SW,225,3.0,15.0,75,0.00,,,0.00,WeatherCatV1.02B3,2013-04-15 13:15:00,
2013-04-15 09:20:00,58.8,50.9,29.34,SW,225,3.0,15.0,75,0.00,,,0.00,WeatherCatV1.02B3,2013-04-15 13:20:00,
2013-04-15 09:25:00,58.8,50.9,29.34,SW,225,3.0,15.0,75,0.00,,,0.00,WeatherCatV1.02B3,2013-04-15 13:25:00,
2013-04-15 09:30:00,59.0,51.4,29.34,SW,225,3.0,16.0,76,0.00,,,0.00,WeatherCatV1.02B3,2013-04-15 13:30:00,
2013-04-15 09:35:00,59.0,51.4,29.34,SW,225,3.0,16.0,76,0.00,,,0.00,WeatherCatV1.02B3,2013-04-15 13:35:00,
2013-04-15 09:40:00,59.0,51.4,29.34,SW,225,3.0,16.0,76,0.00,,,0.00,WeatherCatV1.02B3,2013-04-15 13:40:00,
2013-04-15 09:45:00,59.0,51.4,29.34,SW,225,3.0,16.0,76,0.00,,,0.00,WeatherCatV1.02B3,2013-04-15 13:45:00,
2013-04-15 09:50:00,59.0,51.4,29.34,SW,225,3.0,16.0,76,0.00,,,0.00,WeatherCatV1.02B3,2013-04-15 13:50:00,
2013-04-15 09:55:00,59.0,51.4,29.34,SW,225,3.0,16.0,76,0.00,,,0.00,WeatherCatV1.02B3,2013-04-15 13:55:00,
2013-04-15 10:00:00,59.3,51.7,29.33,SW,225,3.0,13.0,76,0.00,,,0.00,WeatherCatV1.02B3,2013-04-15 14:00:00,
2013-04-15 10:05:00,59.3,51.7,29.33,SW,225,3.0,13.0,76,0.00,,,0.00,WeatherCatV1.02B3,2013-04-15 14:05:00,
2013-04-15 10:10:00,59.3,51.7,29.33,SW,225,3.0,13.0,76,0.00,,,0.00,WeatherCatV1.02B3,2013-04-15 14:10:00,
2013-04-15 10:15:00,59.3,51.7,29.33,SW,225,3.0,13.0,76,0.00,,,0.00,WeatherCatV1.02B3,2013-04-15 14:15:00,
2013-04-15 10:20:00,59.3,51.7,29.33,SW,225,3.0,13.0,76,0.00,,,0.00,WeatherCatV1.02B3,2013-04-15 14:20:00,
2013-04-15 10:25:00,59.3,51.7,29.33,SW,225,3.0,13.0,76,0.00,,,0.00,WeatherCatV1.02B3,2013-04-15 14:25:00,
2013-04-15 10:30:00,59.3,51.7,29.33,SW,225,3.0,13.0,76,0.00,,,0.00,WeatherCatV1.02B3,2013-04-15 14:30:00,
2013-04-15 10:35:00,60.1,52.9,29.32,SW,225,3.0,12.0,77,0.00,,,0.00,WeatherCatV1.02B3,2013-04-15 14:35:00,
2013-04-15 10:40:00,60.1,52.9,29.32,SW,225,3.0,12.0,77,0.00,,,0.00,WeatherCatV1.02B3,2013-04-15 14:40:00,
2013-04-15 10:45:00,60.1,52.9,29.32,SW,225,3.0,12.0,77,0.00,,,0.00,WeatherCatV1.02B3,2013-04-15 14:45:00,
2013-04-15 10:50:00,60.1,52.9,29.32,SW,225,3.0,12.0,77,0.00,,,0.00,WeatherCatV1.02B3,2013-04-15 14:50:00,
2013-04-15 10:55:00,60.1,52.9,29.32,SW,225,3.0,12.0,77,0.00,,,0.00,WeatherCatV1.02B3,2013-04-15 14:55:00,
2013-04-15 11:00:00,61.2,53.2,29.33,SW,225,3.0,18.0,75,0.00,,,0.00,WeatherCatV1.02B3,2013-04-15 15:00:00,
2013-04-15 11:05:00,61.2,53.2,29.33,SW,225,3.0,18.0,75,0.00,,,0.00,WeatherCatV1.02B3,2013-04-15 15:05:00,
2013-04-15 11:10:00,61.2,53.2,29.33,SW,225,3.0,18.0,75,0.00,,,0.00,WeatherCatV1.02B3,2013-04-15 15:10:00,
2013-04-15 11:15:00,61.2,53.2,29.33,SW,225,3.0,18.0,75,0.00,,,0.00,WeatherCatV1.02B3,2013-04-15 15:15:00,
2013-04-15 11:20:00,61.2,53.2,29.33,SW,225,3.0,18.0,75,0.00,,,0.00,WeatherCatV1.02B3,2013-04-15 15:20:00,
2013-04-15 11:25:00,61.2,53.2,29.33,SW,225,3.0,18.0,75,0.00,,,0.00,WeatherCatV1.02B3,2013-04-15 15:25:00,
2013-04-15 11:30:00,61.3,53.3,29.34,SW,225,4.0,14.0,75,0.00,,,0.00,WeatherCatV1.02B3,2013-04-15 15:30:00,
2013-04-15 11:35:00,61.3,53.3,29.34,SW,225,4.0,14.0,75,0.00,,,0.00,WeatherCatV1.02B3,2013-04-15 15:35:00,
2013-04-15 11:40:00,61.3,53.3,29.34,SW,225,4.0,14.0,75,0.00,,,0.00,WeatherCatV1.02B3,2013-04-15 15:40:00,
2013-04-15 11:45:00,61.3,53.3,29.34,SW,225,4.0,14.0,75,0.00,,,0.00,WeatherCatV1.02B3,2013-04-15 15:45:00,
2013-04-15 11:50:00,61.3,53.3,29.34,SW,225,4.0,14.0,75,0.00,,,0.00,WeatherCatV1.02B3,2013-04-15 15:50:00,
2013-04-15 11:55:00,61.3,53.3,29.34,SW,225,4.0,14.0,75,0.00,,,0.00,WeatherCatV1.02B3,2013-04-15 15:55:00,
2013-04-15 12:00:00,61.3,53.3,29.34,SW,225,4.0,14.0,75,0.00,,,0.00,WeatherCatV1.02B3,2013-04-15 16:00:00,
2013-04-15 12:05:00,60.9,53.6,29.36,SW,225,3.0,10.0,77,0.00,,,0.00,WeatherCatV1.02B3,2013-04-15 16:05:00,
2013-04-15 12:10:00,60.9,53.6,29.36,SW,225,3.0,10.0,77,0.00,,,0.00,WeatherCatV1.02B3,2013-04-15 16:10:00,
2013-04-15 12:15:00,60.9,53.6,29.36,SW,225,3.0,10.0,77,0.00,,,0.00,WeatherCatV1.02B3,2013-04-15 16:15:00,
2013-04-15 12:20:00,60.9,53.6,29.36,SW,225,3.0,10.0,77,0.00,,,0.00,WeatherCatV1.02B3,2013-04-15 16:20:00,
2013-04-15 12:25:00,60.9,53.6,29.36,SW,225,3.0,10.0,77,0.00,,,0.00,WeatherCatV1.02B3,2013-04-15 16:25:00,
2013-04-15 12:30:00,60.9,53.6,29.36,SW,225,3.0,10.0,77,0.00,,,0.00,WeatherCatV1.02B3,2013-04-15 16:30:00,
2013-04-15 12:35:00,61.4,54.1,29.36,SW,225,2.0,12.0,77,0.00,,,0.00,WeatherCatV1.02B3,2013-04-15 16:35:00,
2013-04-15 12:40:00,61.4,54.1,29.36,SW,225,2.0,12.0,77,0.00,,,0.00,WeatherCatV1.02B3,2013-04-15 16:40:00,
2013-04-15 12:45:00,61.4,54.1,29.36,SW,225,2.0,12.0,77,0.00,,,0.00,WeatherCatV1.02B3,2013-04-15 16:45:00,
2013-04-15 12:50:00,61.4,54.1,29.36,SW,225,2.0,12.0,77,0.00,,,0.00,WeatherCatV1.02B3,2013-04-15 16:50:00,
2013-04-15 12:55:00,61.4,54.1,29.36,SW,225,2.0,12.0,77,0.00,,,0.00,WeatherCatV1.02B3,2013-04-15 16:55:00,
2013-04-15 13:00:00,62.5,55.2,29.35,SW,225,2.0,11.0,77,0.00,,,0.00,WeatherCatV1.02B3,2013-04-15 17:00:00,
2013-04-15 13:05:00,62.5,55.2,29.35,SW,225,2.0,11.0,77,0.00,,,0.00,WeatherCatV1.02B3,2013-04-15 17:05:00,
2013-04-15 13:10:00,62.5,55.2,29.35,SW,225,2.0,11.0,77,0.00,,,0.00,WeatherCatV1.02B3,2013-04-15 17:10:00,
2013-04-15 13:15:00,62.5,55.2,29.35,SW,225,2.0,11.0,77,0.00,,,0.00,WeatherCatV1.02B3,2013-04-15 17:15:00,
2013-04-15 13:20:00,62.5,55.2,29.35,SW,225,2.0,11.0,77,0.00,,,0.00,WeatherCatV1.02B3,2013-04-15 17:20:00,
2013-04-15 13:25:00,62.5,55.2,29.35,SW,225,2.0,11.0,77,0.00,,,0.00,WeatherCatV1.02B3,2013-04-15 17:25:00,
2013-04-15 13:30:00,62.5,55.2,29.35,SW,225,2.0,11.0,77,0.00,,,0.00,WeatherCatV1.02B3,2013-04-15 17:30:00,
2013-04-15 13:35:00,63.0,55.7,29.34,SW,225,2.0,12.0,77,0.00,,,0.00,WeatherCatV1.02B3,2013-04-15 17:35:00,
2013-04-15 13:40:00,63.0,55.7,29.34,SW,225,2.0,12.0,77,0.00,,,0.00,WeatherCatV1.02B3,2013-04-15 17:40:00,
2013-04-15 13:45:00,63.0,55.7,29.34,SW,225,2.0,12.0,77,0.00,,,0.00,WeatherCatV1.02B3,2013-04-15 17:45:00,
2013-04-15 13:50:00,63.0,55.7,29.34,SW,225,2.0,12.0,77,0.00,,,0.00,WeatherCatV1.02B3,2013-04-15 17:50:00,
2013-04-15 13:55:00,63.0,55.7,29.34,SW,225,2.0,12.0,77,0.00,,,0.00,WeatherCatV1.02B3,2013-04-15 17:55:00,
2013-04-15 14:00:00,63.0,55.7,29.34,SW,225,2.0,12.0,77,0.00,,,0.00,WeatherCatV1.02B3,2013-04-15 18:00:00,
2013-04-15 14:05:00,62.9,55.9,29.34,SW,225,3.0,13.0,78,0.00,,,0.00,WeatherCatV1.02B3,2013-04-15 18:05:00,
2013-04-15 14:10:00,62.9,55.9,29.34,SW,225,3.0,13.0,78,0.00,,,0.00,WeatherCatV1.02B3,2013-04-15 18:10:00,
2013-04-15 14:15:00,62.9,55.9,29.34,SW,225,3.0,13.0,78,0.00,,,0.00,WeatherCatV1.02B3,2013-04-15 18:15:00,
2013-04-15 14:20:00,62.9,55.9,29.34,SW,225,3.0,13.0,78,0.00,,,0.00,WeatherCatV1.02B3,2013-04-15 18:20:00,
2013-04-15 14:25:00,62.9,55.9,29.34,SW,225,3.0,13.0,78,0.00,,,0.00,WeatherCatV1.02B3,2013-04-15 18:25:00,
2013-04-15 14:30:00,63.0,56.0,29.33,SW,225,3.0,10.0,78,0.00,,,0.00,WeatherCatV1.02B3,2013-04-15 18:30:00,
2013-04-15 14:35:00,63.0,56.0,29.33,SW,225,3.0,10.0,78,0.00,,,0.00,WeatherCatV1.02B3,2013-04-15 18:35:00,
2013-04-15 14:40:00,63.0,56.0,29.33,SW,225,3.0,10.0,78,0.00,,,0.00,WeatherCatV1.02B3,2013-04-15 18:40:00,
2013-04-15 14:45:00,63.0,56.0,29.33,SW,225,3.0,10.0,78,0.00,,,0.00,WeatherCatV1.02B3,2013-04-15 18:45:00,
2013-04-15 14:50:00,63.0,56.0,29.33,SW,225,3.0,10.0,78,0.00,,,0.00,WeatherCatV1.02B3,2013-04-15 18:50:00,
2013-04-15 14:55:00,63.0,56.0,29.33,SW,225,3.0,10.0,78,0.00,,,0.00,WeatherCatV1.02B3,2013-04-15 18:55:00,
2013-04-15 15:00:00,64.6,57.2,29.32,SW,225,3.0,13.0,77,0.00,,,0.00,WeatherCatV1.02B3,2013-04-15 19:00:00,
2013-04-15 15:05:00,64.6,57.2,29.32,SW,225,3.0,13.0,77,0.00,,,0.00,WeatherCatV1.02B3,2013-04-15 19:05:00,
2013-04-15 15:10:00,64.6,57.2,29.32,SW,225,3.0,13.0,77,0.00,,,0.00,WeatherCatV1.02B3,2013-04-15 19:10:00,
2013-04-15 15:15:00,64.6,57.2,29.32,SW,225,3.0,13.0,77,0.00,,,0.00,WeatherCatV1.02B3,2013-04-15 19:15:00,
2013-04-15 15:20:00,64.6,57.2,29.32,SW,225,3.0,13.0,77,0.00,,,0.00,WeatherCatV1.02B3,2013-04-15 19:20:00,
2013-04-15 15:25:00,64.6,57.2,29.32,SW,225,3.0,13.0,77,0.00,,,0.00,WeatherCatV1.02B3,2013-04-15 19:25:00,
2013-04-15 15:30:00,64.6,57.2,29.32,SW,225,3.0,13.0,77,0.00,,,0.00,WeatherCatV1.02B3,2013-04-15 19:30:00,
2013-04-15 15:35:00,65.3,56.8,29.32,SE,135,2.0,17.0,74,0.00,,,0.00,WeatherCatV1.02B3,2013-04-15 19:35:00,
2013-04-15 15:40:00,65.3,56.8,29.32,SE,135,2.0,17.0,74,0.00,,,0.00,WeatherCatV1.02B3,2013-04-15 19:40:00,
2013-04-15 15:45:00,65.3,56.8,29.32,SE,135,2.0,17.0,74,0.00,,,0.00,WeatherCatV1.02B3,2013-04-15 19:45:00,
2013-04-15 15:50:00,65.3,56.8,29.32,SE,135,2.0,17.0,74,0.00,,,0.00,WeatherCatV1.02B3,2013-04-15 19:50:00,
2013-04-15 15:55:00,65.3,56.8,29.32,SE,135,2.0,17.0,74,0.00,,,0.00,WeatherCatV1.02B3,2013-04-15 19:55:00,
2013-04-15 16:00:00,65.3,56.8,29.32,SE,135,2.0,17.0,74,0.00,,,0.00,WeatherCatV1.02B3,2013-04-15 20:00:00,
2013-04-15 16:05:00,66.4,57.5,29.33,SW,225,2.0,9.0,73,0.00,,,0.00,WeatherCatV1.02B3,2013-04-15 20:05:00,
2013-04-15 16:10:00,66.4,57.5,29.33,SW,225,2.0,9.0,73,0.00,,,0.00,WeatherCatV1.02B3,2013-04-15 20:10:00,
2013-04-15 16:15:00,66.4,57.5,29.33,SW,225,2.0,9.0,73,0.00,,,0.00,WeatherCatV1.02B3,2013-04-15 20:15:00,
2013-04-15 16:20:00,66.4,57.5,29.33,SW,225,2.0,9.0,73,0.00,,,0.00,WeatherCatV1.02B3,2013-04-15 20:20:00,
2013-04-15 16:25:00,66.4,57.5,29.33,SW,225,2.0,9.0,73,0.00,,,0.00,WeatherCatV1.02B3,2013-04-15 20:25:00,
2013-04-15 16:30:00,66.4,57.5,29.33,SW,225,2.0,9.0,73,0.00,,,0.00,WeatherCatV1.02B3,2013-04-15 20:30:00,
2013-04-15 16:35:00,65.4,57.3,29.34,SW,225,3.0,13.0,75,0.00,,,0.00,WeatherCatV1.02B3,2013-04-15 20:35:00,
2013-04-15 16:40:00,65.4,57.3,29.34,SW,225,3.0,13.0,75,0.00,,,0.00,WeatherCatV1.02B3,2013-04-15 20:40:00,
2013-04-15 16:45:00,65.4,57.3,29.34,SW,225,3.0,13.0,75,0.00,,,0.00,WeatherCatV1.02B3,2013-04-15 20:45:00,
2013-04-15 16:50:00,65.4,57.3,29.34,SW,225,3.0,13.0,75,0.00,,,0.00,WeatherCatV1.02B3,2013-04-15 20:50:00,
2013-04-15 16:55:00,65.4,57.3,29.34,SW,225,3.0,13.0,75,0.00,,,0.00,WeatherCatV1.02B3,2013-04-15 20:55:00,
2013-04-15 17:00:00,62.3,57.4,29.34,SW,225,3.0,12.0,84,0.00,,,0.00,WeatherCatV1.02B3,2013-04-15 21:00:00,
2013-04-15 17:05:00,62.3,57.4,29.34,SW,225,3.0,12.0,84,0.00,,,0.00,WeatherCatV1.02B3,2013-04-15 21:05:00,
2013-04-15 17:10:00,62.3,57.4,29.34,SW,225,3.0,12.0,84,0.00,,,0.00,WeatherCatV1.02B3,2013-04-15 21:10:00,
2013-04-15 17:15:00,62.3,57.4,29.34,SW,225,3.0,12.0,84,0.00,,,0.00,WeatherCatV1.02B3,2013-04-15 21:15:00,
2013-04-15 17:20:00,62.3,57.4,29.34,SW,225,3.0,12.0,84,0.00,,,0.00,WeatherCatV1.02B3,2013-04-15 21:20:00,
2013-04-15 17:25:00,62.3,57.4,29.34,SW,225,3.0,12.0,84,0.00,,,0.00,WeatherCatV1.02B3,2013-04-15 21:25:00,
2013-04-15 17:30:00,60.9,57.6,29.35,SW,225,1.0,5.0,89,0.00,,,0.00,WeatherCatV1.02B3,2013-04-15 21:30:00,
2013-04-15 17:35:00,60.9,57.6,29.35,SW,225,1.0,5.0,89,0.00,,,0.00,WeatherCatV1.02B3,2013-04-15 21:35:00,
2013-04-15 17:40:00,60.9,57.6,29.35,SW,225,1.0,5.0,89,0.00,,,0.00,WeatherCatV1.02B3,2013-04-15 21:40:00,
2013-04-15 17:45:00,60.9,57.6,29.35,SW,225,1.0,5.0,89,0.00,,,0.00,WeatherCatV1.02B3,2013-04-15 21:45:00,
2013-04-15 17:50:00,60.9,57.6,29.35,SW,225,1.0,5.0,89,0.00,,,0.00,WeatherCatV1.02B3,2013-04-15 21:50:00,
2013-04-15 17:55:00,60.9,57.6,29.35,SW,225,1.0,5.0,89,0.00,,,0.00,WeatherCatV1.02B3,2013-04-15 21:55:00,
2013-04-15 18:00:00,59.9,57.9,29.35,WSW,248,1.0,4.0,93,0.13,,,0.00,WeatherCatV1.02B3,2013-04-15 22:00:00,
2013-04-15 18:05:00,59.9,57.9,29.35,WSW,248,1.0,4.0,93,0.13,,,0.00,WeatherCatV1.02B3,2013-04-15 22:05:00,
2013-04-15 18:10:00,59.9,57.9,29.35,WSW,248,1.0,4.0,93,0.13,,,0.00,WeatherCatV1.02B3,2013-04-15 22:10:00,
2013-04-15 18:15:00,59.9,57.9,29.35,WSW,248,1.0,4.0,93,0.13,,,0.00,WeatherCatV1.02B3,2013-04-15 22:15:00,
2013-04-15 18:20:00,59.9,57.9,29.35,WSW,248,1.0,4.0,93,0.13,,,0.00,WeatherCatV1.02B3,2013-04-15 22:20:00,
2013-04-15 18:25:00,59.9,57.9,29.35,WSW,248,1.0,4.0,93,0.13,,,0.00,WeatherCatV1.02B3,2013-04-15 22:25:00,
2013-04-15 18:30:00,59.9,57.9,29.35,WSW,248,1.0,4.0,93,0.13,,,0.00,WeatherCatV1.02B3,2013-04-15 22:30:00,
2013-04-15 18:35:00,59.6,57.9,29.37,WSW,248,1.0,3.0,94,0.09,,,0.00,WeatherCatV1.02B3,2013-04-15 22:35:00,
2013-04-15 18:40:00,59.6,57.9,29.37,WSW,248,1.0,3.0,94,0.09,,,0.00,WeatherCatV1.02B3,2013-04-15 22:40:00,
2013-04-15 18:45:00,59.6,57.9,29.37,WSW,248,1.0,3.0,94,0.09,,,0.00,WeatherCatV1.02B3,2013-04-15 22:45:00,
2013-04-15 18:50:00,59.6,57.9,29.37,WSW,248,1.0,3.0,94,0.09,,,0.00,WeatherCatV1.02B3,2013-04-15 22:50:00,
2013-04-15 18:55:00,59.6,57.9,29.37,WSW,248,1.0,3.0,94,0.09,,,0.00,WeatherCatV1.02B3,2013-04-15 22:55:00,
2013-04-15 19:00:00,58.9,57.2,29.37,WSW,248,1.0,5.0,94,0.33,,,0.00,WeatherCatV1.02B3,2013-04-15 23:00:00,
2013-04-15 19:05:00,58.9,57.2,29.37,WSW,248,1.0,5.0,94,0.33,,,0.00,WeatherCatV1.02B3,2013-04-15 23:05:00,
2013-04-15 19:10:00,58.9,57.2,29.37,WSW,248,1.0,5.0,94,0.33,,,0.00,WeatherCatV1.02B3,2013-04-15 23:10:00,
2013-04-15 19:15:00,58.9,57.2,29.37,WSW,248,1.0,5.0,94,0.33,,,0.00,WeatherCatV1.02B3,2013-04-15 23:15:00,
2013-04-15 19:20:00,58.9,57.2,29.37,WSW,248,1.0,5.0,94,0.33,,,0.00,WeatherCatV1.02B3,2013-04-15 23:20:00,
2013-04-15 19:25:00,58.9,57.2,29.37,WSW,248,1.0,5.0,94,0.33,,,0.00,WeatherCatV1.02B3,2013-04-15 23:25:00,
2013-04-15 19:30:00,58.3,56.9,29.38,WSW,248,1.0,3.0,95,0.51,,,0.00,WeatherCatV1.02B3,2013-04-15 23:30:00,
2013-04-15 19:35:00,58.3,56.9,29.38,WSW,248,1.0,3.0,95,0.51,,,0.00,WeatherCatV1.02B3,2013-04-15 23:35:00,
2013-04-15 19:40:00,58.3,56.9,29.38,WSW,248,1.0,3.0,95,0.51,,,0.00,WeatherCatV1.02B3,2013-04-15 23:40:00,
2013-04-15 19:45:00,58.3,56.9,29.38,WSW,248,1.0,3.0,95,0.51,,,0.00,WeatherCatV1.02B3,2013-04-15 23:45:00,
2013-04-15 19:50:00,58.3,56.9,29.38,WSW,248,1.0,3.0,95,0.51,,,0.00,WeatherCatV1.02B3,2013-04-15 23:50:00,
2013-04-15 19:55:00,58.3,56.9,29.38,WSW,248,1.0,3.0,95,0.51,,,0.00,WeatherCatV1.02B3,2013-04-15 23:55:00,
2013-04-15 20:00:00,56.7,55.6,29.37,West,270,2.0,7.0,96,0.34,,,0.00,WeatherCatV1.02B3,2013-04-16 00:00:00,
2013-04-15 20:05:00,56.7,55.6,29.37,West,270,2.0,7.0,96,0.34,,,0.00,WeatherCatV1.02B3,2013-04-16 00:05:00,
2013-04-15 20:10:00,56.7,55.6,29.37,West,270,2.0,7.0,96,0.34,,,0.00,WeatherCatV1.02B3,2013-04-16 00:10:00,
2013-04-15 20:15:00,56.7,55.6,29.37,West,270,2.0,7.0,96,0.34,,,0.00,WeatherCatV1.02B3,2013-04-16 00:15:00,
2013-04-15 20:20:00,56.7,55.6,29.37,West,270,2.0,7.0,96,0.34,,,0.00,WeatherCatV1.02B3,2013-04-16 00:20:00,
2013-04-15 20:25:00,56.7,55.6,29.37,West,270,2.0,7.0,96,0.34,,,0.00,WeatherCatV1.02B3,2013-04-16 00:25:00,
2013-04-15 20:30:00,55.8,55.0,29.36,West,270,2.0,8.0,97,0.27,,,0.00,WeatherCatV1.02B3,2013-04-16 00:30:00,
2013-04-15 20:35:00,55.8,55.0,29.36,West,270,2.0,8.0,97,0.27,,,0.00,WeatherCatV1.02B3,2013-04-16 00:35:00,
2013-04-15 20:40:00,55.8,55.0,29.36,West,270,2.0,8.0,97,0.27,,,0.00,WeatherCatV1.02B3,2013-04-16 00:40:00,
2013-04-15 20:45:00,55.8,55.0,29.36,West,270,2.0,8.0,97,0.27,,,0.00,WeatherCatV1.02B3,2013-04-16 00:45:00,
2013-04-15 20:50:00,55.8,55.0,29.36,West,270,2.0,8.0,97,0.27,,,0.00,WeatherCatV1.02B3,2013-04-16 00:50:00,
2013-04-15 20:55:00,55.8,55.0,29.36,West,270,2.0,8.0,97,0.27,,,0.00,WeatherCatV1.02B3,2013-04-16 00:55:00,
2013-04-15 21:00:00,51.2,49.2,29.38,NW,315,1.0,5.0,93,0.31,,,0.00,WeatherCatV1.02B3,2013-04-16 01:00:00,
2013-04-15 21:05:00,51.2,49.2,29.38,NW,315,1.0,5.0,93,0.31,,,0.00,WeatherCatV1.02B3,2013-04-16 01:05:00,
2013-04-15 21:10:00,51.2,49.2,29.38,NW,315,1.0,5.0,93,0.31,,,0.00,WeatherCatV1.02B3,2013-04-16 01:10:00,
2013-04-15 21:15:00,51.2,49.2,29.38,NW,315,1.0,5.0,93,0.31,,,0.00,WeatherCatV1.02B3,2013-04-16 01:15:00,
2013-04-15 21:20:00,51.2,49.2,29.38,NW,315,1.0,5.0,93,0.31,,,0.00,WeatherCatV1.02B3,2013-04-16 01:20:00,
2013-04-15 21:25:00,51.2,49.2,29.38,NW,315,1.0,5.0,93,0.31,,,0.00,WeatherCatV1.02B3,2013-04-16 01:25:00,
2013-04-15 21:30:00,48.1,46.2,29.41,NNE,22,2.0,8.0,93,0.16,,,0.00,WeatherCatV1.02B3,2013-04-16 01:30:00,
2013-04-15 21:35:00,48.1,46.2,29.41,NNE,22,2.0,8.0,93,0.16,,,0.00,WeatherCatV1.02B3,2013-04-16 01:35:00,
2013-04-15 21:40:00,48.1,46.2,29.41,NNE,22,2.0,8.0,93,0.16,,,0.00,WeatherCatV1.02B3,2013-04-16 01:40:00,
2013-04-15 21:45:00,48.1,46.2,29.41,NNE,22,2.0,8.0,93,0.16,,,0.00,WeatherCatV1.02B3,2013-04-16 01:45:00,
2013-04-15 21:50:00,48.1,46.2,29.41,NNE,22,2.0,8.0,93,0.16,,,0.00,WeatherCatV1.02B3,2013-04-16 01:50:00,
2013-04-15 21:55:00,48.1,46.2,29.41,NNE,22,2.0,8.0,93,0.16,,,0.00,WeatherCatV1.02B3,2013-04-16 01:55:00,
2013-04-15 22:00:00,48.1,46.2,29.41,NNE,22,2.0,8.0,93,0.16,,,0.00,WeatherCatV1.02B3,2013-04-16 02:00:00,
2013-04-15 22:05:00,46.6,45.0,29.44,NNE,22,1.0,7.0,94,0.07,,,0.00,WeatherCatV1.02B3,2013-04-16 02:05:00,
2013-04-15 22:10:00,46.6,45.0,29.44,NNE,22,1.0,7.0,94,0.07,,,0.00,WeatherCatV1.02B3,2013-04-16 02:10:00,
2013-04-15 22:15:00,46.6,45.0,29.44,NNE,22,1.0,7.0,94,0.07,,,0.00,WeatherCatV1.02B3,2013-04-16 02:15:00,
2013-04-15 22:20:00,46.6,45.0,29.44,NNE,22,1.0,7.0,94,0.07,,,0.00,WeatherCatV1.02B3,2013-04-16 02:20:00,
2013-04-15 22:25:00,46.6,45.0,29.44,NNE,22,1.0,7.0,94,0.07,,,0.00,WeatherCatV1.02B3,2013-04-16 02:25:00,
2013-04-15 22:30:00,45.4,44.1,29.44,NW,315,1.0,6.0,95,0.30,,,0.00,WeatherCatV1.02B3,2013-04-16 02:30:00,
2013-04-15 22:35:00,45.4,44.1,29.44,NW,315,1.0,6.0,95,0.30,,,0.00,WeatherCatV1.02B3,2013-04-16 02:35:00,
2013-04-15 22:40:00,45.4,44.1,29.44,NW,315,1.0,6.0,95,0.30,,,0.00,WeatherCatV1.02B3,2013-04-16 02:40:00,
2013-04-15 22:45:00,45.4,44.1,29.44,NW,315,1.0,6.0,95,0.30,,,0.00,WeatherCatV1.02B3,2013-04-16 02:45:00,
2013-04-15 22:50:00,45.4,44.1,29.44,NW,315,1.0,6.0,95,0.30,,,0.00,WeatherCatV1.02B3,2013-04-16 02:50:00,
2013-04-15 22:55:00,45.4,44.1,29.44,NW,315,1.0,6.0,95,0.30,,,0.00,WeatherCatV1.02B3,2013-04-16 02:55:00,
2013-04-15 23:00:00,45.0,43.9,29.43,NW,315,1.0,6.0,96,0.26,,,0.00,WeatherCatV1.02B3,2013-04-16 03:00:00,
2013-04-15 23:05:00,45.0,43.9,29.43,NW,315,1.0,6.0,96,0.26,,,0.00,WeatherCatV1.02B3,2013-04-16 03:05:00,
2013-04-15 23:10:00,45.0,43.9,29.43,NW,315,1.0,6.0,96,0.26,,,0.00,WeatherCatV1.02B3,2013-04-16 03:10:00,
2013-04-15 23:15:00,45.0,43.9,29.43,NW,315,1.0,6.0,96,0.26,,,0.00,WeatherCatV1.02B3,2013-04-16 03:15:00,
2013-04-15 23:20:00,45.0,43.9,29.43,NW,315,1.0,6.0,96,0.26,,,0.00,WeatherCatV1.02B3,2013-04-16 03:20:00,
2013-04-15 23:25:00,45.0,43.9,29.43,NW,315,1.0,6.0,96,0.26,,,0.00,WeatherCatV1.02B3,2013-04-16 03:25:00,
2013-04-15 23:30:00,45.0,43.9,29.43,NW,315,1.0,6.0,96,0.26,,,0.00,WeatherCatV1.02B3,2013-04-16 03:30:00,
2013-04-15 23:35:00,44.9,44.1,29.45,NE,45,1.0,4.0,97,0.68,,,0.00,WeatherCatV1.02B3,2013-04-16 03:35:00,
2013-04-15 23:40:00,44.9,44.1,29.45,NE,45,1.0,4.0,97,0.68,,,0.00,WeatherCatV1.02B3,2013-04-16 03:40:00,
2013-04-15 23:45:00,44.9,44.1,29.45,NE,45,1.0,4.0,97,0.68,,,0.00,WeatherCatV1.02B3,2013-04-16 03:45:00,
2013-04-15 23:50:00,44.9,44.1,29.45,NE,45,1.0,4.0,97,0.68,,,0.00,WeatherCatV1.02B3,2013-04-16 03:50:00,
2013-04-15 23:55:00,44.9,44.1,29.45,NE,45,1.0,4.0,97,0.68,,,0.00,WeatherCatV1.02B3,2013-04-16 03:55:00,